Weather History for Knox, IN

Change the Weather History Date:

Friday, October 26, 2012

  Actual Average (KVPZ) Record (KVPZ)
Temperature  
Mean Temperature 41 °F 49 °F  
Max Temperature 93 °F 59 °F 77 °F (2000)
Min Temperature 34 °F 40 °F 33 °F (2003)
Degree Days  
Heating Degree Days 24 16  
Month to date heating degree days 318  
Since 1 July heating degree days 448  
Cooling Degree Days 0 0  
Month to date cooling degree days 11  
Year to date cooling degree days 713  
Moisture  
Dew Point 36 °F    
Average Humidity 77    
Maximum Humidity 96    
Minimum Humidity 56    
Precipitation  
Precipitation 0.00 in 0.11 in 0.34 in (2010)
Month to date precipitation 2.78  
Year to date precipitation 31.53  
Sea Level Pressure  
Sea Level Pressure 30.21 in    
Wind  
Wind Speed 13 mph (NNW)    
Max Wind Speed 22 mph    
Max Gust Speed 26 mph    
Visibility 10 miles    
Events      
T = Trace of Precipitation, MM = Missing Value Source: NWS Daily Summary

Daily Weather History Graph

Daily Weather History Graph

Search for Another Location

Airport:

Trip Planner

Search our weather history database for the weather conditions in past years. The results will help you decide how hot, cold, wet, or windy it might be!

Date:

Astronomy

Oct. 26, 2012 Rise Set
Actual Time 7:11 AM CDT 5:48 PM CDT
Civil Twilight 6:43 AM CDT 6:17 PM CDT
Nautical Twilight 6:10 AM CDT 6:49 PM CDT
Astronomical Twilight 5:38 AM CDT 7:21 PM CDT
Moon 4:05 PM CDT (10/26) 4:05 AM CDT (10/26)
Length of Visible Light 11h 34m
Length of Day
10h 37m
Waxing Gibbous, 91% of the Moon is Illuminated
Oct 26
Waxing Gibbous
Oct 29
Full
Nov 6
Last Quarter
Nov 13
New
Nov 20
First Quarter

Hourly Weather History & Observations

Time (CDT) Temp. Windchill Dew Point Humidity Pressure Visibility Wind Dir Wind Speed Gust Speed Precip Events Conditions
12:15 AM 46.9 °F - 45.9 °F 96% 30.00 in 7.0 mi WNW 9.2 mph - N/A   Overcast
1:15 AM 46.2 °F 39.8 °F 44.8 °F 95% 30.06 in 4.0 mi NW 15.0 mph 24.2 mph N/A   Overcast
1:35 AM 45.7 °F 40.2 °F 44.2 °F 95% 30.06 in 5.0 mi NNW 11.5 mph - N/A   Overcast
2:15 AM 44.4 °F 37.9 °F 43.3 °F 96% 30.06 in 10.0 mi NNW 13.8 mph - N/A   Overcast
2:35 AM 44.1 °F 37.7 °F 42.8 °F 95% 30.08 in 10.0 mi NNW 12.7 mph 18.4 mph N/A   Overcast
2:55 AM 44.2 °F 39.2 °F 43.0 °F 95% 30.10 in 10.0 mi NW 9.2 mph - N/A   Overcast
3:15 AM 44.2 °F 38.8 °F 43.0 °F 95% 30.11 in 10.0 mi NW 10.4 mph - N/A   Overcast
3:35 AM 44.2 °F 35.7 °F 41.7 °F 91% 30.13 in 10.0 mi NNW 21.9 mph - N/A   Overcast
3:55 AM 43.5 °F 35.8 °F 39.6 °F 86% 30.13 in 10.0 mi NNW 17.3 mph 24.2 mph N/A   Overcast
4:15 AM 43.0 °F 35.7 °F 38.7 °F 85% 30.13 in 10.0 mi NNW 15.0 mph 20.7 mph N/A   Overcast
4:35 AM 42.8 °F 33.8 °F 37.9 °F 83% 30.14 in 10.0 mi NNW 21.9 mph 26.5 mph N/A   Overcast
4:55 AM 42.8 °F 35.1 °F 36.9 °F 80% 30.15 in 10.0 mi NNW 16.1 mph - N/A   Overcast
5:15 AM 42.6 °F 34.6 °F 36.9 °F 80% 30.16 in 10.0 mi NW 17.3 mph 24.2 mph N/A   Overcast
5:35 AM 42.4 °F 34.7 °F 36.9 °F 81% 30.17 in 10.0 mi NW 16.1 mph 24.2 mph N/A   Overcast
5:55 AM 42.3 °F 35.1 °F 36.5 °F 80% 30.18 in 10.0 mi NNW 13.8 mph 19.6 mph N/A   Overcast
6:15 AM 42.3 °F 35.9 °F 36.5 °F 80% 30.19 in 10.0 mi NNW 11.5 mph 16.1 mph N/A   Overcast
6:35 AM 42.3 °F 36.3 °F 36.3 °F 79% 30.19 in 10.0 mi NNW 10.4 mph - N/A   Overcast
6:55 AM 42.1 °F 35.2 °F 35.8 °F 78% 30.19 in 10.0 mi North 12.7 mph - N/A   Overcast
7:15 AM 42.1 °F 35.7 °F 35.8 °F 78% 30.20 in 10.0 mi NNW 11.5 mph - N/A   Overcast
7:35 AM 41.9 °F 34.6 °F 35.8 °F 79% 30.20 in 10.0 mi NNW 13.8 mph - N/A   Overcast
7:55 AM 41.9 °F 35.4 °F 35.4 °F 78% 30.20 in 10.0 mi NNW 11.5 mph - N/A   Overcast
8:15 AM 41.9 °F 34.3 °F 34.9 °F 76% 30.21 in 10.0 mi NNW 15.0 mph - N/A   Overcast
8:35 AM 42.1 °F 35.2 °F 34.5 °F 75% 30.23 in 10.0 mi NNW 12.7 mph - N/A   Overcast
8:55 AM 42.4 °F 35.3 °F 35.2 °F 76% 30.24 in 10.0 mi NNW 13.8 mph - N/A   Overcast
9:15 AM 43.2 °F 35.6 °F 35.2 °F 74% 30.25 in 10.0 mi NNW 16.1 mph - N/A   Overcast
9:55 AM 44.6 °F 37.8 °F 35.2 °F 70% 30.26 in 10.0 mi NNW 15.0 mph 24.2 mph N/A   Overcast
10:15 AM 45.1 °F 37.6 °F 35.1 °F 68% 30.26 in 10.0 mi NNW 18.4 mph 23.0 mph N/A   Overcast
10:35 AM 46.6 °F - 35.1 °F 64% 30.26 in 10.0 mi NNW 17.3 mph 25.3 mph N/A   Mostly Cloudy
10:55 AM 46.9 °F - 35.2 °F 64% 30.26 in 10.0 mi North 17.3 mph 25.3 mph N/A   Mostly Cloudy
11:15 AM 47.5 °F - 35.1 °F 62% 30.27 in 10.0 mi North 17.3 mph 23.0 mph N/A   Mostly Cloudy
11:35 AM 47.7 °F - 34.7 °F 61% 30.27 in 10.0 mi North 19.6 mph 23.0 mph N/A   Mostly Cloudy
11:55 AM 46.9 °F - 34.3 °F 62% 30.28 in 10.0 mi North 17.3 mph - N/A   Overcast
12:15 PM 45.9 °F 38.5 °F 34.0 °F 63% 30.27 in 10.0 mi North 18.4 mph - N/A   Overcast
12:35 PM 45.3 °F 38.4 °F 33.8 °F 64% 30.27 in 10.0 mi North 16.1 mph 20.7 mph N/A   Overcast
12:55 PM 45.9 °F 39.4 °F 34.2 °F 64% 30.26 in 10.0 mi North 15.0 mph 20.7 mph N/A   Mostly Cloudy
1:15 PM 46.9 °F - 34.0 °F 61% 30.26 in 10.0 mi North 13.8 mph 19.6 mph N/A   Mostly Cloudy
1:35 PM 46.8 °F - 33.4 °F 60% 30.26 in 10.0 mi North 15.0 mph - N/A   Mostly Cloudy
1:55 PM 47.1 °F - 33.6 °F 59% 30.25 in 10.0 mi North 16.1 mph 20.7 mph N/A   Mostly Cloudy
2:15 PM 46.9 °F - 34.0 °F 61% 30.26 in 10.0 mi North 12.7 mph 16.1 mph N/A   Mostly Cloudy
3:15 PM 48.0 °F - 33.6 °F 57% 30.24 in 10.0 mi North 12.7 mph 18.4 mph N/A   Scattered Clouds
3:35 PM 48.2 °F - 33.4 °F 57% 30.24 in 10.0 mi North 13.8 mph - N/A   Clear
3:55 PM 47.7 °F - 33.1 °F 57% 30.24 in 10.0 mi North 12.7 mph - N/A   Clear
4:15 PM 47.7 °F - 32.7 °F 56% 30.24 in 10.0 mi North 16.1 mph 19.6 mph N/A   Clear
4:35 PM 46.9 °F - 33.3 °F 59% 30.24 in 10.0 mi North 16.1 mph - N/A   Clear
4:55 PM 45.7 °F 39.8 °F 32.9 °F 61% 30.23 in 10.0 mi North 12.7 mph - N/A   Clear
5:15 PM 45.0 °F 38.2 °F 32.7 °F 62% 30.24 in 10.0 mi North 15.0 mph - N/A   Clear
5:35 PM 43.7 °F 38.1 °F 32.9 °F 66% 30.24 in 10.0 mi North 10.4 mph - N/A   Clear
5:55 PM 42.3 °F 35.9 °F 33.1 °F 70% 30.24 in 10.0 mi North 11.5 mph - N/A   Clear
6:35 PM 40.3 °F 34.4 °F 33.6 °F 77% 30.25 in 10.0 mi North 9.2 mph - N/A   Clear
6:55 PM 39.4 °F 34.5 °F 33.6 °F 80% 30.25 in 10.0 mi North 6.9 mph - N/A   Clear
7:15 PM 37.4 °F 31.4 °F 33.3 °F 85% 30.25 in 10.0 mi North 8.1 mph - N/A   Clear
7:35 PM 36.7 °F 31.2 °F 33.3 °F 87% 30.25 in 10.0 mi NNW 6.9 mph - N/A   Clear
7:55 PM 37.2 °F 32.6 °F 34.3 °F 89% 30.26 in 10.0 mi NNW 5.8 mph - N/A   Clear
8:15 PM 38.1 °F 32.9 °F 34.9 °F 88% 30.25 in 10.0 mi NNW 6.9 mph - N/A   Clear
8:35 PM 38.5 °F 35.0 °F 35.1 °F 87% 30.24 in 10.0 mi North 4.6 mph - N/A   Clear
8:55 PM 38.5 °F - 35.2 °F 88% 30.25 in 10.0 mi Calm Calm - N/A   Clear
9:15 PM 38.3 °F 35.9 °F 34.5 °F 86% 30.26 in 10.0 mi North 3.5 mph - N/A   Clear
9:35 PM 37.4 °F 32.8 °F 34.2 °F 88% 30.26 in 10.0 mi NNW 5.8 mph - N/A   Clear
9:55 PM 36.1 °F 32.3 °F 33.6 °F 91% 30.26 in 10.0 mi NNW 4.6 mph - N/A   Clear
10:15 PM 35.8 °F 30.9 °F 33.4 °F 91% 30.27 in 10.0 mi NNW 5.8 mph - N/A   Clear
10:35 PM 34.7 °F 30.6 °F 32.5 °F 92% 30.27 in 10.0 mi North 4.6 mph - N/A   Clear
10:55 PM 35.1 °F 32.2 °F 33.1 °F 92% 30.26 in 10.0 mi North 3.5 mph - N/A   Clear
11:15 PM 35.4 °F 31.5 °F 33.1 °F 91% 30.26 in 10.0 mi NNE 4.6 mph - N/A   Clear
11:35 PM 35.6 °F 32.8 °F 32.5 °F 89% 30.25 in 10.0 mi NNE 3.5 mph - N/A   Clear
11:55 PM 35.2 °F 32.4 °F 32.5 °F 90% 30.25 in 10.0 mi NE 3.5 mph - N/A   Clear